Location: Engelmannsreuth
(49.8125°N, 11.6497°E)
Time: 16:25:11
(UTC+00:00)

Cosmos 921 Rocket - Pass Details

Date: 17 February 2020
Orbit: 572 x 631 km, 75.8° (Epoch: 30 March)

Event Time Altitude Azimuth Distance (km) Brightness Sun altitude
Rises 05:41:48 0° 329° (NNW) 2,917 6.1 -7.0°
Reaches altitude 10° 05:44:22 10° 317° (NW) 1,996 5.2 -6.6°
Maximum altitude 05:48:00 25° 262° (W) 1,255 4.1 -6.0°
Drops below altitude 10° 05:51:33 10° 207° (SSW) 1,954 5.5 -5.4°
Sets 05:54:02 0° 194° (SSW) 2,841 6.4 -5.0°
